OK1ALX-6 Weather Reports


time (UTC)temp
C
wind
direction
speed
KPH
gust
KPH
rain 1hr
cm
rain 24hr
cm
rain mn
cm
humidity
%
barometer
mb
20260507035011 11 220 1.6 3.2 0.00 0.15 0.00 88 1014.2
20260507034003 12 223 0.0 3.2 0.00 0.15 0.00 88 1014.4
20260507033003 12 238 3.2 4.8 0.00 0.15 0.00 87 1014.1
20260507032003 12 263 4.8 14.5 0.00 0.15 0.00 87 1014.1
20260507031003 12 229 8.0 14.5 0.00 0.15 0.00 86 1013.8
20260507030003 12 232 6.4 12.9 0.00 0.15 0.00 86 1013.7
20260507025003 12 208 6.4 12.9 0.00 0.15 0.00 85 1013.3
20260507024003 12 194 3.2 11.3 0.00 0.15 0.00 85 1013.5
20260507023003 12 186 1.6 9.7 0.00 0.15 0.00 85 1013.5
20260507022003 12 195 3.2 6.4 0.00 0.15 0.00 85 1013.4
20260507021003 11 196 1.6 6.4 0.00 0.15 0.00 87 1013.7
20260507020003 11 147 1.6 4.8 0.00 0.15 0.00 86 1013.6
20260507015003 12 150 1.6 3.2 0.00 0.15 0.00 85 1013.2
20260507014003 12 179 1.6 4.8 0.00 0.15 0.00 86 1013.5
20260507013003 11 188 3.2 9.7 0.00 0.15 0.00 88 1013.5
20260507012003 11 198 3.2 6.4 0.00 0.15 0.00 88 1013.5
20260507011003 11 205 3.2 9.7 0.00 0.15 0.00 88 1013.1
20260507010003 11 199 3.2 9.7 0.00 0.15 0.00 87 1013.0
20260507005003 11 192 3.2 4.8 0.00 0.15 0.00 88 1013.0
20260507004003 12 203 3.2 9.7 0.00 0.15 0.00 88 1012.8
20260507003003 12 217 3.2 9.7 0.00 0.15 0.00 88 1012.9
20260507002003 12 221 3.2 9.7 0.00 0.15 0.00 89 1012.9
20260507001003 12 226 3.2 4.8 0.00 0.15 0.00 89 1012.6
20260507000003 12 228 3.2 6.4 0.00 0.15 0.00 89 1012.7
20260506235003 12 170 3.2 4.8 0.00 0.15 0.00 89 1012.6
20260506234003 12 236 3.2 4.8 0.00 0.15 0.00 89 1012.4
20260506233003 12 259 1.6 4.8 0.00 0.15 0.00 89 1012.4
20260506232003 12 285 3.2 6.4 0.00 0.15 0.00 89 1012.2
20260506231003 12 289 8.0 14.5 0.00 0.15 0.00 88 1012.1
20260506230003 12 291 6.4 16.1 0.00 0.15 0.00 87 1012.0
20260506225003 12 52 6.4 14.5 0.00 0.15 0.00 87 1011.2
20260506224003 12 33 4.8 11.3 0.00 0.15 0.00 87 1010.9
20260506223003 12 319 4.8 12.9 0.00 0.15 0.00 86 1011.4
20260506222003 13 335 6.4 12.9 0.00 0.15 0.00 83 1011.9
20260506221003 13 334 8.0 17.7 0.00 0.15 0.00 81 1012.0
20260506220011 13 305 11.3 27.4 0.00 0.15 0.00 81 1012.0
20260506215004 13 304 12.9 22.5 0.00 0.15 0.15 81 1012.1
20260506214003 13 300 9.7 17.7 0.00 0.15 0.15 82 1012.1
20260506213003 13 292 12.9 25.7 0.00 0.15 0.15 84 1012.2
20260506212003 13 287 11.3 25.7 0.00 0.15 0.15 88 1012.6
20260506211003 12 311 6.4 14.5 0.00 0.15 0.15 87 1011.5
20260506210004 12 319 4.8 11.3 0.00 0.15 0.15 87 1010.9
20260506205003 13 318 3.2 4.8 0.00 0.15 0.15 85 1010.7
20260506204003 13 331 3.2 6.4 0.00 0.15 0.15 83 1010.4
20260506203003 13 69 0.0 3.2 0.00 0.15 0.15 83 1010.5
20260506202003 13 86 0.0 4.8 0.00 0.15 0.15 82 1010.0
20260506201003 13 78 0.0 3.2 0.00 0.15 0.15 82 1010.0
20260506200003 13 79 3.2 6.4 0.00 0.15 0.15 82 1010.0
20260506195003 13 82 1.6 3.2 0.00 0.15 0.15 84 1010.1
20260506194003 13 136 0.0 3.2 0.00 0.15 0.15 83 1010.0
20260506193003 13 114 1.6 3.2 0.00 0.15 0.15 83 1010.0
20260506192003 13 90 0.0 1.6 0.00 0.15 0.15 83 1009.9
20260506191003 13 83 0.0 3.2 0.00 0.15 0.15 83 1009.8
20260506190003 13 81 1.6 4.8 0.00 0.15 0.15 83 1010.0
20260506185003 13 0 0.0 0.0 0.00 0.15 0.15 86 1009.8
20260506184003 14 0 0.0 0.0 0.00 0.15 0.15 85 1010.0
20260506183003 14 56 1.6 3.2 0.00 0.15 0.15 85 1009.8
20260506182003 14 25 3.2 6.4 0.00 0.15 0.15 84 1009.6
20260506181003 14 64 1.6 3.2 0.00 0.15 0.15 85 1009.9
20260506180004 15 61 4.8 6.4 0.03 0.15 0.15 83 1010.2
20260506175003 15 34 4.8 6.4 0.03 0.15 0.15 83 1009.7
20260506174003 15 346 6.4 11.3 0.03 0.15 0.15 82 1009.6
20260506173003 15 308 6.4 11.3 0.03 0.15 0.15 82 1009.5
20260506172003 16 291 6.4 11.3 0.03 0.15 0.15 81 1009.4
20260506171003 16 337 4.8 12.9 0.03 0.15 0.15 82 1009.3
20260506170003 16 317 8.0 17.7 0.00 0.13 0.13 80 1009.2
20260506165003 17 329 4.8 9.7 0.00 0.13 0.13 78 1008.9
20260506164004 17 347 3.2 4.8 0.00 0.13 0.13 76 1008.7
20260506163003 17 360 3.2 6.4 0.00 0.13 0.13 72 1008.7
20260506162003 18 18 4.8 6.4 0.00 0.13 0.13 71 1008.1
20260506161003 18 37 3.2 9.7 0.00 0.13 0.13 69 1008.3
20260506160003 17 52 4.8 11.3 0.00 0.13 0.13 72 1008.5
20260506155003 17 45 3.2 9.7 0.00 0.13 0.13 78 1008.9
20260506154003 17 95 4.8 9.7 0.00 0.13 0.13 73 1008.8
20260506153003 17 141 3.2 9.7 0.00 0.13 0.13 74 1009.6
20260506152003 18 72 3.2 6.4 0.00 0.13 0.13 73 1009.1
20260506151003 18 54 3.2 6.4 0.05 0.13 0.13 71 1009.0
20260506150003 19 341 1.6 3.2 0.13 0.13 0.13 68 1009.3
20260506145003 18 335 3.2 6.4 0.13 0.13 0.13 71 1009.3
20260506144003 17 304 4.8 4.8 0.13 0.13 0.13 74 1009.4
20260506143003 16 296 4.8 6.4 0.13 0.13 0.13 79 1009.9
20260506142003 17 331 1.6 6.4 0.13 0.13 0.13 76 1010.0
20260506141003 17 62 1.6 6.4 0.08 0.08 0.08 75 1010.0
20260506140003 20 52 3.2 6.4 0.00 0.00 0.00 55 1009.6
20260506135003 21 29 3.2 9.7 0.00 0.00 0.00 54 1009.4
20260506134003 21 6 3.2 6.4 0.00 0.00 0.00 52 1009.3
20260506133003 21 43 3.2 9.7 0.00 0.00 0.00 52 1009.3
20260506132003 21 356 1.6 6.4 0.00 0.00 0.00 52 1009.5
20260506131003 21 347 3.2 6.4 0.00 0.00 0.00 49 1009.7
20260506130003 20 331 1.6 6.4 0.00 0.00 0.00 54 1010.1
20260506125003 20 324 3.2 6.4 0.00 0.00 0.00 57 1010.1
20260506124003 21 352 3.2 6.4 0.00 0.00 0.00 53 1009.9
20260506123003 21 5 3.2 6.4 0.00 0.00 0.00 49 1010.0
20260506122003 21 330 1.6 6.4 0.00 0.00 0.00 47 1010.2
20260506121003 21 300 3.2 6.4 0.00 0.00 0.00 49 1010.4
20260506120003 21 271 3.2 4.8 0.00 0.00 0.00 47 1010.3
20260506115003 22 347 1.6 6.4 0.00 0.00 0.00 50 1010.0
20260506114003 20 314 3.2 9.7 0.00 0.00 0.00 51 1010.4
20260506113003 21 327 3.2 9.7 0.00 0.00 0.00 50 1010.4
20260506112003 20 350 3.2 9.7 0.00 0.00 0.00 52 1010.5
20260506111003 20 15 3.2 6.4 0.00 0.00 0.00 53 1010.9
20260506110003 19 241 4.8 6.4 0.00 0.00 0.00 54 1011.0
20260506105003 21 277 3.2 11.3 0.00 0.00 0.00 51 1011.1
20260506104003 21 248 3.2 11.3 0.00 0.00 0.00 51 1011.1
20260506103003 19 270 6.4 12.9 0.00 0.00 0.00 55 1011.6
20260506102003 19 264 3.2 11.3 0.00 0.00 0.00 52 1011.5
20260506101003 20 245 3.2 12.9 0.00 0.00 0.00 53 1011.7
20260506100003 19 211 4.8 11.3 0.00 0.00 0.00 53 1011.7
20260506095003 19 228 4.8 11.3 0.00 0.00 0.00 56 1011.7
20260506094003 18 263 3.2 11.3 0.00 0.00 0.00 59 1011.9
20260506093003 18 276 6.4 12.9 0.00 0.00 0.00 59 1012.0
20260506092003 18 276 6.4 14.5 0.00 0.00 0.00 61 1011.9
20260506091003 18 247 4.8 9.7 0.00 0.00 0.00 62 1012.1
20260506090003 17 292 8.0 12.9 0.00 0.00 0.00 63 1012.2
20260506085003 17 273 6.4 14.5 0.00 0.00 0.00 63 1012.0
20260506084006 17 248 6.4 12.9 0.00 0.00 0.00 62 1012.1
20260506083003 17 244 8.0 14.5 0.00 0.00 0.00 61 1012.4
20260506082003 17 247 8.0 14.5 0.00 0.00 0.00 63 1011.9
20260506081003 16 251 9.7 16.1 0.00 0.00 0.00 63 1012.2
20260506073003 16 261 9.7 20.9 0.00 0.00 0.00 66 1012.5
20260506072003 16 274 8.0 17.7 0.00 0.00 0.00 67 1012.6
20260506071003 16 277 11.3 20.9 0.00 0.00 0.00 68 1012.4
20260506062003 16 277 6.4 14.5 0.00 0.00 0.00 69 1012.2
20260506061003 15 258 3.2 9.7 0.00 0.00 0.00 72 1012.2
20260506051003 14 206 3.2 6.4 0.00 0.00 0.00 80 1012.4
20260506045003 13 154 0.0 3.2 0.00 0.00 0.00 82 1012.4
20260506044003 13 133 0.0 1.6 0.00 0.00 0.00 83 1012.3
20260506043003 12 133 0.0 1.6 0.00 0.00 0.00 88 1012.2
20260506042003 12 133 0.0 1.6 0.00 0.00 0.00 91 1012.6
20260506040003 12 0 0.0 0.0 0.00 0.00 0.00 93 1012.2